{"data":{"norad_id":56692,"intl_designator":"2023-067E","name":"STARLINK-30036","alt_names":[],"object_type":"PAYLOAD","status":"ACTIVE","operator":null,"country":"US","launch_date":"2023-05-19","launch_site_code":"AFETR","launch_vehicle":null,"mission":null,"orbit_class":"UNKNOWN","rcs_meters":null,"size_class":null,"mass_kg":null,"dimensions":null,"purposes":["comms"],"wikipedia_slug":null,"has_3d_model":false,"image_url":null,"decayed_at":null,"tle_current":{"epoch":"2026-05-25T05:04:05.539008Z","epoch_age_seconds":56824,"freshness":"FRESH","line1":"1 56692U 23067E   26145.21117522  .00000900  00000+0  42243-4 0  9992","line2":"2 56692  43.0027 209.0736 0001500 269.9685  90.0995 15.27578419166154","mean_motion":15.27578419,"eccentricity":0.00015,"inclination_deg":43.0027,"raan_deg":209.0736,"arg_perigee_deg":269.9685,"mean_anomaly_deg":90.0995,"bstar":4.2243e-5,"rev_number":16615,"period_min":94.266846277042,"perigee_km":482.02465150198,"apogee_km":484.08300875102,"semimajor_km":6861.1908301265,"source":"CELESTRAK","updated_at":"2026-05-25T13:38:18.119592Z"}}}